Date,TemperatureHighF,TemperatureAvgF,TemperatureLowF,DewpointHighF,DewpointAvgF,DewpointLowF,HumidityHigh,HumidityAvg,HumidityLow,PressureMaxIn,PressureMinIn,WindSpeedMaxMPH,WindSpeedAvgMPH,GustSpeedMaxMPH,PrecipitationSumIn
2013-1-1,43.0,38.4,32.7,37.6,32.4,28.4,89,79,65,29.88,29.75,8,1,9,0.00
2013-1-2,40.8,37.6,34.0,38.1,33.0,30.6,90,83,76,30.37,29.84,13,1,15,0.00
2013-1-3,43.0,38.2,34.5,40.3,35.1,31.3,92,88,81,30.37,30.27,10,3,14,0.02
2013-1-4,49.1,46.2,42.6,46.0,42.4,38.8,94,87,73,30.40,30.14,14,2,19,0.18
2013-1-5,49.1,45.1,40.8,44.8,41.4,39.6,97,87,79,30.31,30.14,22,4,23,0.13
2013-1-6,44.8,42.5,40.6,41.4,40.0,38.3,96,91,84,30.30,30.10,18,2,18,0.09
2013-1-7,44.8,40.2,37.9,41.5,38.7,36.9,97,94,87,30.31,30.16,12,1,13,0.15
2013-1-8,41.2,39.5,36.0,39.6,38.2,34.7,97,95,93,30.28,30.13,8,0,9,0.07
2013-1-9,41.5,40.1,38.7,39.9,38.3,36.0,95,93,88,30.16,29.84,8,1,10,0.00
2013-1-10,38.7,36.4,34.7,36.3,34.0,31.5,95,91,81,29.85,29.67,11,1,14,0.14
2013-1-11,35.1,28.4,25.3,32.9,23.8,19.8,96,83,75,30.00,29.68,11,2,14,0.01
2013-1-12,28.0,24.9,20.1,23.4,20.2,16.7,90,82,70,30.06,29.98,11,1,12,0.00
2013-1-13,27.3,24.7,21.0,24.1,21.4,17.4,91,87,79,30.06,30.02,8,1,9,0.00
2013-1-14,27.7,25.5,23.5,25.5,23.7,21.0,95,93,89,30.03,29.88,9,1,10,0.00
2013-1-15,28.0,24.9,22.5,25.0,23.0,20.8,96,93,86,29.90,29.73,6,0,7,0.00
2013-1-16,26.8,25.8,24.8,25.9,24.4,23.4,96,94,92,29.75,29.71,8,1,10,0.00
2013-1-17,26.6,25.2,24.1,24.3,23.1,21.4,94,92,85,29.90,29.73,14,3,15,0.00
2013-1-18,24.1,21.0,19.2,22.8,18.9,17.1,95,92,88,29.89,29.69,9,2,11,0.00
2013-1-19,21.0,19.8,18.9,18.5,17.3,16.3,94,90,83,29.69,29.54,7,1,9,0.00
2013-1-20,25.3,22.2,18.9,24.1,20.3,16.7,95,92,90,29.55,29.44,8,1,11,0.00
2013-1-21,25.3,23.4,19.9,24.1,22.3,18.5,96,95,94,29.57,29.43,5,1,6,0.00
2013-1-22,22.1,19.6,17.8,18.9,17.0,15.6,94,90,85,29.77,29.57,5,0,5,0.00
2013-1-23,23.4,20.8,18.7,20.3,18.4,16.3,93,90,87,29.80,29.75,6,0,6,0.00
2013-1-24,22.3,21.2,19.0,20.8,19.5,16.9,95,93,90,29.99,29.78,6,1,8,0.00
2013-1-25,19.6,17.3,10.9,17.2,15.0,8.4,92,90,86,30.14,29.99,8,1,10,0.00
2013-1-26,17.4,12.5,3.4,15.3,10.1,0.7,93,90,87,30.09,29.99,7,0,7,0.00
2013-1-27,31.8,26.8,17.4,29.7,24.5,15.3,95,91,86,30.00,29.72,8,1,8,0.00
2013-1-28,37.2,33.4,30.4,33.8,31.4,29.1,96,93,86,30.04,29.73,9,1,11,0.06
2013-1-29,39.7,37.5,35.1,38.7,35.6,33.3,96,93,88,30.03,29.83,13,2,13,0.48
2013-1-30,52.2,45.8,39.6,48.2,43.6,38.1,96,92,79,29.86,29.62,19,3,22,0.20
2013-1-31,45.9,42.7,40.3,39.4,34.8,31.8,90,74,59,29.91,29.76,20,3,21,0.00
2013-2-1,43.2,38.2,37.4,36.7,36.3,33.3,95,93,75,29.77,29.21,7,2,20,0.09
2013-2-2,38.7,36.2,29.7,37.6,32.1,21.0,96,85,69,29.71,29.13,16,3,23,0.06
2013-2-3,36.9,31.8,26.6,30.6,25.0,21.9,93,76,63,29.92,29.72,8,2,16,0.00
2013-2-4,38.8,35.2,31.5,37.0,33.1,29.1,94,92,90,29.76,29.67,7,2,15,0.10
2013-2-5,43.3,38.2,33.4,36.3,34.0,30.2,94,85,69,29.77,29.42,9,2,20,0.01
2013-2-6,37.0,32.7,27.7,30.2,25.6,22.1,88,75,58,29.56,29.43,8,1,13,0.01
2013-2-7,35.1,31.2,27.9,29.3,26.6,24.6,92,83,70,29.78,29.56,6,0,12,0.00
2013-2-8,34.3,29.1,25.3,27.1,24.7,22.8,93,84,64,29.90,29.77,6,0,9,0.01
2013-2-9,29.3,27.3,25.2,25.3,23.0,20.7,95,84,71,30.03,29.90,4,1,7,0.01
2013-2-10,29.5,27.1,23.2,23.0,20.8,17.8,89,77,65,30.02,29.86,8,1,10,0.01
2013-2-11,27.3,25.5,22.3,22.8,20.7,18.1,90,82,70,29.86,29.74,12,2,12,0.00
2013-2-12,28.0,27.1,26.2,26.8,24.6,22.5,96,90,84,29.91,29.71,9,2,11,0.00
2013-2-13,29.7,27.6,26.4,26.1,25.1,24.1,96,90,82,30.29,29.91,7,2,11,0.03
2013-2-14,30.7,28.1,26.2,27.5,25.7,24.3,93,91,86,30.29,30.07,7,1,8,0.02
2013-2-15,33.3,30.5,29.1,31.1,28.9,27.0,96,94,89,30.13,30.01,3,0,6,0.01
2013-2-16,36.7,32.3,29.1,32.0,29.7,27.1,95,90,81,30.21,30.13,2,0,5,0.06
2013-2-17,34.2,32.2,31.5,31.6,30.8,30.0,97,95,89,30.22,30.18,4,0,6,0.06
2013-2-18,33.3,31.3,30.0,30.4,29.3,28.2,96,92,84,30.18,30.11,5,0,7,0.01
2013-2-19,33.1,31.1,28.8,31.5,28.5,26.1,94,90,82,30.05,29.78,10,2,16,0.07
2013-2-20,29.8,27.6,24.1,26.4,24.6,22.3,94,89,78,30.11,29.93,11,3,15,0.01
2013-2-21,25.0,23.1,20.8,22.8,20.5,18.3,94,90,80,30.12,30.05,6,1,10,0.05
2013-2-22,23.4,20.5,18.7,21.0,18.0,16.5,93,90,83,30.06,29.87,8,2,16,0.00
2013-2-23,27.3,25.8,24.4,26.1,24.9,23.0,98,97,94,29.83,29.73,7,1,9,0.00
2013-2-24,35.1,30.9,24.6,32.9,29.6,24.1,98,95,89,29.93,29.74,5,0,7,0.06
2013-2-25,37.6,35.5,33.1,37.4,35.4,32.9,100,100,97,30.23,29.91,5,0,9,0.22
2013-2-26,37.9,35.0,29.8,37.4,34.1,29.8,100,97,93,30.34,30.22,11,2,14,0.04
2013-2-27,34.9,32.3,29.8,33.1,31.3,29.8,100,96,92,30.40,30.34,8,2,14,0.00
2013-2-28,37.6,34.2,32.4,33.3,31.7,30.7,98,91,79,30.38,30.17,4,0,8,0.00
2013-3-1,36.1,33.5,31.6,31.8,29.8,27.3,92,86,80,30.21,30.10,9,1,13,0.00
2013-3-2,39.0,33.0,28.0,28.4,26.3,23.2,90,77,55,30.23,30.09,7,0,11,0.01
2013-3-3,37.6,32.0,26.8,30.0,26.6,23.2,88,80,70,30.20,30.06,11,1,13,0.00
2013-3-4,41.5,34.6,27.1,30.0,26.7,24.3,91,74,57,30.25,30.14,7,1,11,0.00
2013-3-5,46.4,35.6,25.5,32.9,28.2,22.6,90,75,57,30.14,29.84,6,1,11,0.00
2013-3-6,48.7,38.4,29.3,37.0,31.5,26.4,89,77,61,29.84,29.61,5,1,9,0.00
2013-3-7,46.9,41.5,36.0,42.8,38.5,32.9,96,89,82,29.62,29.55,4,0,7,0.01
2013-3-8,44.6,41.7,37.6,43.5,40.9,36.9,98,97,95,29.62,29.58,4,0,7,0.02
2013-3-9,39.4,38.1,36.3,38.8,37.6,35.8,98,98,97,29.62,29.54,2,0,5,0.07
2013-3-10,53.1,44.7,39.2,46.4,41.2,38.7,99,89,59,29.54,29.38,7,1,9,0.02
2013-3-11,43.2,26.6,21.9,41.4,24.9,20.1,98,94,88,29.66,29.39,9,2,14,0.01
2013-3-12,26.4,24.2,21.4,23.5,22.1,20.1,96,92,87,29.66,29.50,7,2,11,0.00
2013-3-13,26.2,22.9,21.0,21.6,20.0,18.0,95,88,80,29.71,29.50,10,2,12,0.00
2013-3-14,29.1,23.6,18.0,18.0,16.6,14.2,89,75,56,29.80,29.71,9,2,18,0.06
2013-3-15,29.1,23.8,18.7,22.8,18.5,14.7,88,80,62,30.05,29.79,10,2,15,0.00
2013-3-16,34.9,25.9,16.2,22.1,16.9,12.9,92,70,45,30.12,29.99,7,1,10,0.02
2013-3-17,39.6,30.6,20.8,24.4,20.4,16.2,83,66,50,29.99,29.64,13,4,18,0.03
2013-3-18,37.4,31.0,27.1,31.3,27.0,22.6,97,85,71,29.64,29.21,8,2,14,0.01
2013-3-19,39.2,34.1,30.6,34.5,31.5,28.9,96,90,82,29.55,29.20,9,1,14,0.95
2013-3-20,47.1,38.3,32.2,37.9,33.8,30.6,96,85,65,29.75,29.55,7,1,9,0.04
2013-3-21,36.9,33.3,28.2,35.2,28.6,23.2,96,83,67,30.04,29.74,14,2,19,0.00
2013-3-22,29.7,27.7,26.2,25.2,23.0,20.8,89,82,72,30.10,30.03,11,2,13,0.00
2013-3-23,29.1,24.3,16.5,23.4,14.5,6.4,88,67,48,30.18,30.08,13,4,23,0.00
2013-3-24,31.6,20.7,13.8,14.7,8.1,2.5,73,59,35,30.18,30.06,20,5,23,0.00
2013-3-25,28.2,23.3,19.0,17.2,13.4,10.2,75,66,47,30.08,29.91,13,5,21,0.00
2013-3-26,31.5,25.5,21.0,15.6,14.0,10.0,77,62,41,29.91,29.83,15,3,15,0.00
2013-3-27,27.3,24.9,21.4,25.0,20.6,13.6,93,84,66,29.90,29.85,10,2,12,0.01
2013-3-28,36.1,30.4,26.1,29.3,26.6,23.7,93,86,72,29.88,29.73,7,2,11,0.01
2013-3-29,39.7,34.4,30.2,33.3,28.4,23.9,95,80,54,29.72,29.62,11,1,16,0.11
2013-3-30,39.2,34.1,29.7,30.6,27.5,25.3,86,77,67,29.70,29.63,12,2,12,0.00
2013-3-31,33.3,30.7,28.0,27.9,26.1,24.3,93,83,70,29.77,29.67,11,3,16,0.00
2013-4-1,34.9,30.6,27.1,27.1,24.8,22.3,90,79,66,29.85,29.75,8,2,13,0.02
2013-4-2,37.9,31.2,24.6,27.9,25.4,23.0,96,80,62,29.92,29.83,10,2,16,0.00
2013-4-3,34.3,30.9,28.0,27.1,26.0,24.6,90,82,70,29.95,29.91,10,3,14,0.00
2013-4-4,35.2,31.5,28.9,29.5,28.0,26.4,92,87,77,29.93,29.82,9,2,12,0.00
2013-4-5,36.0,32.8,30.7,31.3,30.1,28.9,94,89,82,29.83,29.71,7,2,13,0.00
2013-4-6,36.9,34.1,32.5,32.5,31.2,30.2,93,89,83,30.10,29.83,8,2,10,0.00
2013-4-7,40.3,34.9,31.8,31.1,28.5,24.1,93,79,55,30.12,30.01,6,1,11,0.00
2013-4-8,46.8,38.5,26.2,30.4,26.0,23.2,91,62,42,30.01,29.68,11,2,14,0.00
2013-4-9,47.8,41.0,36.0,39.9,34.3,26.6,92,77,61,29.69,29.62,5,1,8,0.04
2013-4-10,52.2,44.6,37.8,43.3,40.0,36.1,95,84,66,29.79,29.61,10,1,16,0.01
2013-4-11,56.8,48.7,40.8,49.6,43.3,37.8,91,82,69,29.80,29.57,6,1,11,0.03
2013-4-12,55.4,51.0,45.9,49.5,45.9,40.1,95,83,62,29.74,29.49,9,1,15,0.13
2013-4-13,57.6,49.4,43.9,43.9,40.7,36.1,86,73,47,30.20,29.74,9,2,16,0.03
2013-4-14,61.9,51.3,39.7,43.2,39.5,36.7,90,66,43,30.32,30.21,6,1,8,0.00
2013-4-15,68.2,57.7,43.3,44.2,40.5,35.4,83,55,36,30.26,30.09,10,2,15,0.00
2013-4-16,70.0,59.2,50.5,51.3,42.4,35.8,77,54,41,30.10,30.04,8,1,9,0.00
2013-4-17,69.4,61.2,53.1,53.6,50.2,46.8,91,69,45,30.17,30.08,6,1,10,0.00
2013-4-18,78.6,66.5,54.1,53.8,49.9,46.2,76,57,35,30.08,29.88,7,1,14,0.01
2013-4-19,61.9,55.3,46.8,54.7,42.3,33.1,89,63,40,30.19,29.94,6,1,11,0.13
2013-4-20,49.6,46.5,43.3,45.3,41.8,39.2,91,84,74,30.27,30.19,8,2,11,0.07
2013-4-21,64.2,52.5,43.0,50.0,43.6,38.1,83,72,58,30.23,29.90,11,2,14,0.00
2013-4-22,66.9,56.1,44.4,53.2,48.2,41.5,91,76,55,29.97,29.88,6,0,7,0.00
2013-4-23,66.7,57.6,48.7,49.5,45.5,39.6,91,67,44,30.17,29.97,6,1,16,0.00
2013-4-24,70.3,59.4,47.1,46.4,43.3,39.9,79,57,40,30.27,30.17,6,-4,13,0.00
2013-4-25,73.4,63.8,51.1,50.5,47.3,45.1,80,57,39,30.23,30.05,8,1,12,0.00
2013-4-26,78.3,67.0,53.2,52.9,47.1,42.4,73,51,29,30.05,29.51,9,1,13,0.00
2013-4-27,67.6,54.7,45.5,53.1,49.0,43.5,93,82,57,29.67,29.51,11,3,21,0.07
2013-4-28,49.1,44.4,40.3,43.9,40.9,37.8,96,88,76,30.00,29.64,13,3,15,0.15
2013-4-29,54.1,50.2,45.1,49.5,46.0,41.5,92,86,78,30.10,29.94,5,0,7,0.02
2013-4-30,61.2,52.1,46.9,50.4,46.6,44.4,92,82,65,30.12,30.01,10,2,19,0.02
2013-5-1,54.9,49.0,44.8,49.8,46.1,43.7,97,90,81,30.20,30.06,8,2,11,0.02
2013-5-2,59.4,52.5,47.7,54.5,49.8,46.6,98,91,82,30.11,29.95,10,2,15,0.02
2013-5-3,53.1,50.9,49.3,50.2,48.1,44.4,97,90,81,29.96,29.90,10,3,15,0.10
2013-5-4,63.1,53.0,45.3,52.2,47.2,42.8,91,81,64,30.07,29.96,4,0,8,0.02
2013-5-5,64.8,56.5,50.0,53.6,49.9,47.1,95,80,53,30.19,30.07,7,1,13,0.00
2013-5-6,61.5,56.7,48.9,56.7,52.4,46.4,93,86,75,30.16,29.96,8,1,10,0.00
2013-5-7,69.6,60.8,56.3,62.2,57.4,54.7,95,89,68,29.97,29.87,11,1,18,0.40
2013-5-8,72.3,61.4,55.4,60.6,57.3,54.0,97,87,59,29.94,29.86,6,1,9,0.17
2013-5-9,74.8,63.7,52.3,62.2,56.8,51.3,97,80,50,29.92,29.83,8,0,9,0.00
2013-5-10,62.4,57.1,52.3,58.3,54.9,50.7,96,92,81,29.95,29.78,6,1,9,0.57
2013-5-11,57.9,53.5,51.1,51.6,49.1,46.9,96,85,67,29.95,29.89,5,0,8,0.01
2013-5-12,62.1,52.8,46.4,49.3,44.9,38.7,94,76,55,29.99,29.82,12,2,21,0.02
2013-5-13,57.4,47.9,39.6,48.4,42.0,37.0,91,81,52,30.01,29.93,8,1,11,0.04
2013-5-14,65.8,56.3,48.7,48.7,46.1,42.1,91,71,46,29.93,29.76,6,1,11,0.00
2013-5-15,72.9,60.9,46.2,54.3,49.3,43.2,92,67,46,29.76,29.54,11,3,19,0.00
2013-5-16,73.8,62.7,51.1,55.2,51.2,48.2,92,68,41,29.55,29.39,14,4,22,0.02
2013-5-17,73.9,64.0,54.5,57.2,53.8,49.8,85,70,52,29.49,29.41,15,3,19,0.01
2013-5-18,67.3,59.0,52.0,55.8,51.5,46.9,94,77,51,29.79,29.49,7,1,16,0.22
2013-5-19,72.9,60.2,48.9,56.3,51.8,46.6,94,76,52,29.78,29.56,10,2,15,0.64
2013-5-20,66.0,56.6,47.1,50.0,46.1,43.3,93,70,44,29.84,29.68,9,1,14,0.00
2013-5-21,66.0,56.8,46.9,47.5,44.5,41.2,82,65,44,29.86,29.73,9,1,15,0.00
2013-5-22,63.0,51.1,45.1,50.0,45.1,39.7,90,80,59,29.79,29.60,10,2,15,0.06
2013-5-23,53.1,47.0,42.8,41.2,38.5,36.1,87,73,55,29.79,29.67,6,1,11,0.00
2013-5-24,52.3,46.2,38.5,42.8,40.2,35.8,92,80,67,29.81,29.68,9,2,14,0.00
2013-5-25,53.8,46.0,40.8,46.9,42.3,37.9,93,87,73,29.81,29.75,11,1,13,0.30
2013-5-26,46.4,43.6,41.7,43.0,41.3,39.9,95,92,85,29.75,29.61,8,2,19,0.20
2013-5-27,55.8,48.6,43.0,50.0,46.2,41.5,96,92,79,29.76,29.58,6,1,10,0.20
2013-5-28,65.1,53.7,43.9,50.9,46.8,42.8,97,79,50,29.75,29.49,6,1,12,0.00
2013-5-29,64.9,55.2,48.0,54.9,51.2,46.9,97,87,65,29.60,29.46,12,1,18,0.06
2013-5-30,52.2,49.2,46.9,51.1,47.8,45.9,96,95,90,29.62,29.39,10,2,15,1.14
2013-5-31,57.9,53.0,48.6,54.1,50.4,45.5,98,92,71,29.62,29.36,8,1,11,0.15
2013-6-1,57.7,51.2,45.5,56.8,49.9,44.2,98,95,90,29.69,29.61,11,2,19,0.80
2013-6-2,54.5,50.8,47.8,53.4,48.8,45.0,96,93,86,30.00,29.65,16,6,22,0.32
2013-6-3,51.1,47.5,45.1,48.2,45.8,44.1,96,94,89,30.09,30.00,11,3,18,0.63
2013-6-4,60.8,54.1,48.4,52.9,49.6,46.4,95,85,68,30.07,30.00,10,3,14,0.11
2013-6-5,65.7,57.2,47.7,52.0,47.3,42.3,91,71,52,30.07,30.03,10,2,14,0.00
2013-6-6,65.1,58.7,52.0,56.7,53.1,48.9,91,82,72,30.12,30.06,6,1,7,0.00
2013-6-7,72.3,62.6,52.9,61.3,56.4,51.3,96,81,59,30.10,30.01,8,1,10,0.00
2013-6-8,75.0,65.7,54.9,62.8,58.4,53.1,95,79,56,30.04,29.83,8,1,11,0.41
2013-6-9,76.5,63.3,57.4,64.0,58.6,55.4,96,86,60,29.83,29.66,8,1,15,0.04
2013-6-10,60.4,58.1,56.1,59.0,55.5,50.0,96,91,77,29.82,29.65,10,1,13,0.23
2013-6-11,69.4,61.3,54.0,52.3,49.0,43.5,86,66,40,30.02,29.82,11,2,15,0.00
2013-6-12,73.8,64.5,51.4,52.7,49.2,46.4,89,60,40,30.09,30.02,6,1,8,0.00
2013-6-13,79.5,68.9,56.1,58.3,54.1,50.2,83,61,43,30.07,29.85,6,1,10,0.00
2013-6-14,69.1,63.0,55.6,56.7,51.5,47.1,93,67,49,30.07,29.84,9,2,18,0.13
2013-6-15,75.9,64.6,52.7,59.4,53.3,48.4,87,68,46,30.01,29.88,8,1,13,0.00
2013-6-16,78.3,69.0,60.3,57.4,53.4,46.9,77,59,40,29.99,29.91,8,1,11,0.00
2013-6-17,83.8,71.0,58.5,66.6,59.0,51.6,83,67,53,29.99,29.90,9,1,11,0.00
2013-6-18,91.0,78.8,65.7,75.7,67.7,61.7,88,70,44,29.96,29.89,7,1,9,0.00
2013-6-19,90.3,79.6,69.8,75.6,68.9,66.4,89,71,48,29.96,29.83,9,2,14,0.00
2013-6-20,91.2,80.0,69.3,76.1,69.2,59.5,92,71,52,29.84,29.68,11,2,25,0.00
2013-6-21,77.4,69.5,62.6,62.1,59.7,54.9,93,73,51,29.96,29.74,10,1,18,0.17
2013-6-22,78.6,71.0,63.1,59.9,57.7,53.4,84,64,50,29.97,29.87,8,1,11,0.01
2013-6-23,74.8,68.1,59.7,60.8,56.6,49.1,87,68,49,29.93,29.83,8,1,13,0.00
2013-6-24,63.0,57.8,54.5,55.0,52.2,47.5,95,82,58,30.02,29.91,6,1,13,0.30
2013-6-25,54.7,52.7,49.8,53.6,50.7,47.1,96,93,89,30.12,29.97,9,3,15,0.88
2013-6-26,55.0,51.1,48.9,47.8,46.0,42.6,94,83,65,30.23,30.10,11,2,18,0.04
2013-6-27,61.2,54.3,47.7,48.7,46.1,44.2,90,75,57,30.23,30.13,4,0,8,0.00
2013-6-28,66.0,57.9,46.0,51.3,47.2,43.7,93,69,47,30.14,30.03,4,0,9,0.00
2013-6-29,66.0,58.1,49.5,54.0,50.2,46.2,93,76,57,30.05,29.94,7,1,12,0.03
2013-6-30,63.1,55.6,48.4,52.3,44.4,40.6,90,67,47,30.15,30.04,11,3,18,0.01
2013-7-1,75.6,64.3,50.4,54.5,50.0,45.5,84,62,42,30.09,29.97,4,1,9,0.00
2013-7-2,80.8,69.6,57.7,58.1,53.5,49.3,75,58,41,29.98,29.87,5,1,11,0.00
2013-7-3,77.2,66.6,59.7,64.4,58.4,53.2,90,75,58,29.93,29.82,9,1,11,0.14
2013-7-4,74.8,66.9,60.3,62.2,60.1,58.5,95,80,61,30.16,29.91,6,1,8,0.12
2013-7-5,73.0,66.6,61.7,62.2,60.1,57.9,92,80,63,30.31,30.16,9,1,13,0.00
2013-7-6,74.8,67.4,60.4,62.4,59.7,57.7,92,77,58,30.33,30.27,8,1,15,0.00
2013-7-7,76.3,68.0,58.8,58.8,55.6,52.2,88,66,46,30.35,30.29,9,1,13,0.00
2013-7-8,76.5,68.2,58.5,58.6,55.4,52.7,83,65,49,30.34,30.25,7,1,11,0.00
2013-7-9,79.7,70.8,58.1,59.7,57.0,54.5,88,63,46,30.27,30.04,8,1,11,0.00
2013-7-10,78.3,70.1,61.9,59.0,56.5,54.3,77,63,46,30.04,29.86,9,2,15,0.00
2013-7-11,63.0,59.1,54.7,54.3,50.5,48.7,82,73,63,30.03,29.92,15,3,15,0.00
2013-7-12,70.3,62.4,55.2,52.9,50.7,47.7,83,67,47,30.07,30.02,10,2,14,0.00
2013-7-13,72.0,63.5,52.3,54.3,51.3,47.7,86,66,46,30.08,30.04,13,2,20,0.00
2013-7-14,74.5,65.4,54.3,57.9,53.7,49.6,85,67,48,30.09,30.03,9,2,14,0.00
2013-7-15,70.2,63.3,57.4,57.2,51.8,46.2,83,67,46,30.16,30.04,10,2,18,0.00
2013-7-16,77.5,66.8,54.0,54.9,51.9,49.1,84,61,43,30.19,30.11,7,1,10,0.00
2013-7-17,80.2,69.5,57.0,57.7,54.3,51.4,85,60,37,30.14,30.09,6,1,12,0.00
2013-7-18,81.0,71.2,59.7,59.0,56.1,53.2,82,60,42,30.14,30.06,9,1,12,0.00
2013-7-19,81.0,72.5,62.8,58.6,56.7,53.8,78,59,40,30.11,29.98,10,2,13,0.00
2013-7-20,76.6,69.1,61.2,59.2,55.5,53.1,79,63,45,30.08,30.01,9,2,11,0.00
2013-7-21,80.2,69.5,57.4,58.6,54.4,51.3,87,61,39,30.14,30.06,6,1,11,0.00
2013-7-22,85.5,72.8,58.1,58.3,53.3,48.0,84,54,28,30.08,29.91,7,1,10,0.00
2013-7-23,85.6,74.2,61.3,59.7,53.3,44.6,77,51,25,29.92,29.85,7,1,11,0.00
2013-7-24,85.8,74.3,60.6,63.7,54.4,50.5,89,52,32,29.92,29.84,7,1,10,0.23
2013-7-25,81.3,71.3,63.9,65.1,62.8,61.0,93,76,52,29.95,29.91,7,1,9,0.02
2013-7-26,88.0,76.8,65.3,65.1,62.1,59.5,86,63,39,29.96,29.86,6,1,14,0.00
2013-7-27,94.6,82.2,68.0,65.5,61.5,58.1,82,53,30,29.87,29.72,7,1,12,0.00
2013-7-28,94.8,84.6,71.8,64.8,61.2,57.4,71,47,29,29.83,29.72,7,1,9,0.00
2013-7-29,82.8,73.4,63.5,68.0,64.5,59.5,95,75,48,29.87,29.68,11,2,20,1.43
2013-7-30,76.3,67.4,60.1,61.9,57.5,51.1,94,73,44,30.03,29.84,9,2,18,0.12
2013-7-31,75.6,68.3,62.1,61.5,58.5,55.2,87,71,54,30.06,29.99,10,1,18,0.00
2013-8-1,84.6,72.2,59.4,61.5,58.7,56.5,91,65,40,30.08,29.97,5,1,8,0.00
2013-8-2,93.4,78.4,62.1,65.3,59.3,55.2,87,56,29,29.99,29.88,6,1,9,0.00
2013-8-3,95.2,81.5,66.4,66.7,61.8,57.2,79,54,29,29.99,29.87,7,1,10,0.00
2013-8-4,84.9,71.6,62.4,67.5,63.9,58.6,94,78,49,30.12,29.97,11,1,20,1.59
2013-8-5,80.1,69.2,58.6,67.1,62.7,57.6,96,81,59,30.10,29.96,7,1,11,0.01
2013-8-6,89.4,80.2,63.0,65.5,62.7,60.1,93,58,41,29.96,29.80,19,4,29,1.15
2013-8-7,82.6,72.1,62.4,67.6,64.4,60.6,95,78,59,29.92,29.76,9,1,11,0.08
2013-8-8,82.6,74.6,68.0,68.0,65.0,62.1,83,73,56,29.97,29.74,7,1,13,0.00
2013-8-9,69.6,62.4,55.2,62.8,58.2,54.1,96,86,71,30.08,29.96,8,1,13,0.62
2013-8-10,74.8,63.1,53.8,60.6,56.0,52.3,96,80,51,30.09,29.98,8,1,14,0.54
2013-8-11,72.0,62.6,55.0,57.9,54.1,49.1,96,76,50,30.03,29.97,11,1,15,0.01
2013-8-12,75.6,64.6,51.8,57.2,52.1,48.0,88,66,44,30.04,29.85,4,0,9,0.00
2013-8-13,69.8,61.3,57.0,56.1,51.4,45.3,85,71,42,30.06,29.84,9,2,16,0.00
2013-8-14,68.7,59.7,52.0,49.6,46.5,42.3,83,63,39,30.18,30.05,8,1,10,0.00
2013-8-15,72.1,60.6,48.7,49.1,44.7,40.6,84,59,33,30.22,30.14,6,0,7,0.00
2013-8-16,76.5,65.7,51.3,52.7,46.5,43.0,81,52,34,30.16,30.02,7,1,11,0.00
2013-8-17,81.9,70.1,54.0,55.2,51.0,46.0,82,53,35,30.02,29.91,5,0,8,0.00
2013-8-18,85.6,74.2,63.1,60.6,56.5,53.2,74,55,37,29.94,29.86,6,1,10,0.00
2013-8-19,73.9,65.9,59.5,62.1,58.1,53.4,95,77,54,30.03,29.89,8,0,15,0.49
2013-8-20,64.0,58.7,54.1,57.6,53.7,51.8,94,84,68,30.31,30.03,8,1,13,0.00
2013-8-21,68.7,58.9,49.1,52.5,49.3,45.3,95,73,45,30.31,30.18,7,1,11,0.00
2013-8-22,70.2,59.8,49.8,54.5,50.2,46.9,92,72,49,30.18,30.07,9,1,9,0.00
2013-8-23,70.9,61.2,51.3,55.4,51.6,48.6,92,72,51,30.08,30.00,12,1,15,0.00
2013-9-8,66.7,66.6,66.0,58.6,57.9,57.6,76,74,73,29.97,29.96,2,0,4,0.00
2013-9-9,66.0,59.6,51.3,58.5,53.1,46.6,95,80,58,30.05,29.83,9,1,19,0.40
2013-9-10,63.9,55.2,49.8,54.7,49.2,44.2,93,81,60,30.04,29.88,10,1,10,0.19
2013-9-11,58.5,53.1,48.4,49.3,47.8,46.4,93,83,66,29.95,29.86,5,1,13,0.00
2013-9-12,60.6,53.2,50.7,50.7,48.6,47.5,93,85,65,29.96,29.83,12,1,12,0.03
2013-9-13,61.2,54.6,49.8,52.3,49.4,47.8,93,83,65,30.03,29.96,5,0,10,0.00
2013-9-14,69.1,59.2,52.2,55.2,51.5,48.2,91,77,50,29.99,29.88,9,2,13,0.00
2013-9-15,66.9,60.3,56.8,59.7,56.9,55.2,95,89,73,29.88,29.71,4,0,7,0.02
2013-9-16,57.9,55.6,52.9,55.4,52.8,50.7,95,90,81,29.71,29.49,5,0,10,0.10
2013-9-17,55.2,48.5,44.2,51.4,43.6,38.1,95,84,54,29.66,29.49,12,1,16,0.02
2013-9-18,55.9,48.4,43.0,54.1,46.0,40.3,95,92,88,29.63,29.41,8,1,9,0.24
2013-9-19,55.9,49.5,44.1,47.7,44.1,41.9,93,82,61,29.90,29.57,10,1,16,0.00
2013-9-20,57.7,51.4,47.7,52.9,48.5,44.1,94,90,80,30.02,29.87,6,1,9,0.16
2013-9-21,57.4,53.9,51.1,51.3,49.9,48.0,94,87,78,30.28,30.02,10,1,13,0.00
2013-9-22,61.0,54.1,47.7,51.6,49.0,46.2,95,84,66,30.29,30.18,8,1,9,0.00
2013-9-23,62.2,57.4,53.2,54.1,51.7,49.1,92,82,68,30.18,30.04,9,2,14,0.00
2013-9-24,62.2,57.7,54.7,54.0,51.5,49.5,85,80,71,30.04,29.91,7,1,12,0.00
2013-9-25,60.3,54.9,50.9,53.8,51.0,48.0,94,87,78,29.93,29.79,7,0,8,0.00
2013-9-26,63.9,53.8,46.6,55.8,50.7,44.1,97,90,63,30.03,29.74,11,2,23,0.09
2013-9-27,54.0,45.8,37.9,44.4,41.0,36.7,96,84,64,30.05,29.98,6,1,9,0.00
2013-9-28,55.8,46.7,36.9,42.6,39.1,35.1,95,76,51,30.00,29.92,7,1,11,0.01
2013-9-29,55.8,47.5,40.1,43.0,40.4,38.5,94,78,56,29.96,29.88,14,3,21,0.00
2013-9-30,54.9,46.3,39.0,40.3,38.0,36.1,91,74,52,29.90,29.83,12,3,20,0.00
2013-10-1,53.1,43.3,33.6,39.6,35.4,31.5,95,75,50,30.03,29.87,9,1,12,0.00
2013-10-2,51.1,42.9,34.2,38.8,33.6,29.8,93,71,44,30.28,30.03,8,2,14,0.00
2013-10-3,50.9,41.5,32.2,34.5,31.5,28.8,92,69,47,30.31,30.25,12,2,16,0.00
2013-10-4,55.6,42.8,30.9,35.4,31.9,27.9,90,67,42,30.29,30.14,11,2,12,0.00
2013-10-5,53.6,43.6,34.2,42.4,35.5,30.6,87,74,56,30.14,30.01,7,1,10,0.00
2013-10-6,56.7,48.8,42.6,44.1,41.2,38.5,87,76,56,30.25,30.05,4,0,7,0.00
2013-10-7,55.9,50.9,45.9,47.3,45.5,42.8,93,82,67,30.31,30.25,5,0,6,0.00
2013-10-8,58.6,49.9,42.3,48.4,45.3,40.6,97,85,62,30.27,30.15,6,1,10,0.00
2013-10-9,55.2,49.1,41.4,49.6,46.0,40.1,96,89,77,30.16,29.86,2,0,6,0.01
2013-10-10,61.2,52.3,43.9,51.4,47.5,42.3,95,84,65,29.86,29.64,10,2,12,0.48
2013-10-11,53.1,45.1,41.4,52.5,44.1,40.3,98,96,95,30.04,29.77,5,0,10,0.41
2013-10-12,51.8,44.8,37.4,50.9,43.9,36.3,97,97,96,30.06,29.94,8,0,11,0.50
2013-10-13,54.9,46.0,40.3,46.9,42.9,39.0,97,89,70,30.12,29.99,4,0,8,0.00
2013-10-14,52.5,43.3,36.0,47.3,41.5,34.9,97,93,82,30.11,30.00,5,0,6,0.01
2013-10-15,55.0,47.0,40.5,50.7,44.4,39.4,97,91,81,30.00,29.70,3,0,6,0.00
2013-10-16,51.1,46.4,41.5,45.0,42.8,39.7,93,87,75,29.95,29.69,8,2,14,0.01
2013-10-17,55.9,47.3,39.7,49.6,44.3,38.1,96,90,77,29.94,29.82,8,1,13,0.14
2013-10-18,52.3,49.2,42.3,48.7,43.2,39.9,92,80,70,30.10,29.83,12,2,18,0.02
2013-10-19,56.5,46.9,40.6,47.5,43.0,38.8,96,87,68,30.10,29.96,9,1,12,0.01
2013-10-20,60.1,52.3,44.4,54.9,49.5,42.6,96,90,78,30.01,29.96,5,0,8,0.13
2013-10-21,63.7,57.5,53.1,55.8,53.7,51.8,96,88,74,30.03,29.97,6,1,10,0.01
2013-10-22,62.2,55.0,50.2,56.7,51.9,48.6,95,90,76,30.02,29.89,6,0,7,0.00
2013-10-23,61.2,55.2,50.2,55.6,52.8,49.1,98,92,82,29.94,29.82,5,0,8,0.02
2013-10-24,64.8,57.5,51.1,55.2,52.3,48.6,93,84,64,30.11,29.94,7,0,10,0.01
2013-10-25,53.6,50.4,46.6,52.2,49.0,45.1,97,95,91,30.10,30.01,3,0,5,0.00
2013-10-26,66.4,56.9,49.5,57.7,52.9,48.9,98,87,72,30.01,29.95,6,1,9,0.01
2013-10-27,65.5,58.4,52.5,55.2,51.1,45.9,90,77,59,29.96,29.75,9,1,16,0.01
2013-10-28,71.1,60.6,52.5,51.3,47.8,44.2,81,65,40,29.85,29.62,7,1,15,0.01
2013-10-29,59.4,53.0,47.8,47.3,45.3,43.7,89,75,61,30.03,29.78,9,1,11,0.00
2013-10-30,53.1,47.3,39.4,45.0,39.9,34.0,90,76,52,30.29,30.02,7,0,12,0.00
2013-10-31,50.7,41.9,34.2,39.4,35.5,31.8,92,79,55,30.30,30.12,6,1,8,0.00
2013-11-1,49.3,43.2,36.9,42.4,39.3,34.2,94,86,72,30.12,29.91,7,1,8,0.00
2013-11-2,55.2,48.8,42.3,52.5,46.3,39.7,95,91,86,29.91,29.65,6,1,11,0.04
2013-11-3,54.9,49.4,43.0,52.3,45.0,37.4,93,85,77,29.71,29.56,9,2,21,0.05
2013-11-4,54.1,47.2,40.6,43.5,38.4,35.6,83,72,51,29.70,29.28,11,2,14,0.00
2013-11-5,51.6,43.2,37.9,44.2,38.4,31.8,92,83,74,29.51,29.29,6,1,12,0.05
2013-11-6,48.0,43.6,38.3,44.1,39.2,32.2,95,85,66,29.69,29.35,11,1,22,0.17
2013-11-7,60.1,53.6,45.3,52.9,49.7,44.1,97,87,75,29.83,29.66,8,2,14,0.02
2013-11-8,61.7,55.7,52.9,51.8,49.8,47.7,91,81,69,29.82,29.72,6,1,11,0.02
2013-11-9,55.6,48.7,41.7,50.0,43.9,37.4,93,83,70,29.86,29.71,5,1,13,0.09
2013-11-10,47.3,42.3,39.2,41.9,38.8,35.8,95,87,78,29.95,29.58,7,1,18,0.25
2013-11-11,42.4,40.6,38.8,37.9,36.6,33.3,92,86,75,30.40,29.95,8,1,9,0.00
2013-11-12,43.2,38.6,32.5,35.6,33.0,29.8,93,80,69,30.39,30.17,6,0,8,0.00
2013-11-13,44.1,36.4,32.4,39.9,34.0,30.7,95,91,83,30.34,30.17,7,0,9,0.00
2013-11-14,36.0,33.6,31.8,34.0,32.3,30.6,96,95,92,30.29,30.04,4,0,6,0.01
2013-11-15,38.1,35.9,33.3,36.5,34.5,32.2,96,95,93,30.33,30.07,4,0,6,0.04
2013-11-16,45.0,39.9,35.4,40.6,37.5,33.8,95,91,83,30.36,30.25,4,0,6,0.00
2013-11-17,35.8,33.5,31.1,35.2,32.6,29.8,98,96,94,30.25,30.06,4,0,6,0.01
2013-11-18,41.7,39.4,35.8,41.0,38.4,35.2,98,96,93,30.06,29.79,5,1,8,0.01
2013-11-19,43.7,41.7,39.0,42.4,40.1,37.8,96,94,90,29.79,29.55,6,1,10,0.00
2013-11-20,43.3,40.0,36.3,41.7,38.7,34.2,97,95,91,29.58,29.47,7,1,9,0.13
2013-11-21,40.8,37.9,36.1,40.1,35.6,32.4,97,91,84,29.58,29.47,7,1,9,0.01
2013-11-22,45.7,42.3,40.5,42.6,40.6,39.0,98,94,83,29.78,29.53,7,1,10,0.00
2013-11-23,42.6,40.6,38.7,40.8,38.8,37.6,97,93,87,29.88,29.78,10,2,12,0.00
2013-11-24,42.3,38.4,31.5,41.2,35.4,25.3,96,89,74,30.04,29.86,15,4,23,0.03
2013-11-25,31.6,30.7,30.2,27.5,24.7,23.0,87,78,71,30.21,30.04,8,2,14,0.00
2013-11-26,32.2,29.9,26.8,27.9,26.1,22.8,89,85,77,30.38,30.21,9,2,14,0.00
2013-11-27,32.2,26.9,21.0,25.0,22.1,18.5,91,82,73,30.41,30.32,5,1,8,0.00
2013-11-28,35.8,32.5,28.8,32.7,28.9,22.1,93,87,77,30.32,30.18,9,2,12,0.00
2013-11-29,39.4,36.0,34.2,34.3,33.2,32.2,94,89,81,30.21,29.74,8,1,14,0.06
2013-11-30,40.6,36.6,34.2,36.5,34.3,32.5,95,91,83,30.17,29.73,6,1,10,0.03
2013-12-1,40.6,37.4,34.9,36.0,34.1,32.5,94,88,79,30.28,30.17,5,0,8,0.01
2013-12-2,40.3,37.7,33.6,36.9,33.9,30.6,94,86,77,30.49,30.28,5,1,9,0.00
2013-12-3,34.2,29.1,25.3,30.6,27.1,24.1,96,92,82,30.47,30.25,4,0,5,0.01
2013-12-4,34.7,28.8,21.7,31.8,26.7,20.3,96,92,87,30.25,30.11,9,1,12,0.00
2013-12-5,39.4,35.9,32.2,35.8,32.2,30.4,93,87,78,30.21,29.57,10,2,19,0.09
2013-12-6,37.8,33.1,30.4,35.4,26.7,23.4,94,77,66,29.91,29.60,18,5,31,0.01
2013-12-7,35.1,33.0,30.9,31.9,27.0,23.0,92,79,69,30.17,29.90,13,3,24,0.00
2013-12-8,40.1,37.9,33.8,36.7,35.0,32.0,93,89,85,30.25,30.15,10,3,20,0.03
2013-12-9,43.9,42.3,39.7,40.3,38.8,36.2,92,87,85,30.40,30.12,12,4,23,0.06
2013-12-10,47.7,43.6,40.8,43.7,41.2,38.9,95,91,86,30.57,30.40,5,1,10,0.00
2013-12-11,42.1,40.0,37.0,40.8,38.9,36.3,97,96,93,30.56,30.50,3,0,6,0.00
2013-12-12,37.0,34.4,31.3,36.3,33.8,30.5,98,97,97,30.52,30.37,1,0,7,0.01
2013-12-13,33.1,31.5,30.7,32.6,31.0,30.2,98,98,97,30.37,30.26,4,0,5,0.01
2013-12-14,36.0,32.9,30.0,34.5,32.0,29.5,98,96,93,30.41,30.25,7,1,12,0.01
2013-12-15,40.1,36.9,35.1,35.1,33.6,31.8,96,88,81,30.45,30.37,8,3,19,0.01
2013-12-16,45.1,36.8,30.2,32.8,30.8,27.1,91,80,58,30.45,30.41,5,1,9,0.00
2013-12-17,31.3,28.4,25.7,30.3,27.2,24.4,97,95,91,30.42,30.36,1,0,4,0.00
2013-12-18,28.6,27.4,26.1,27.6,26.4,25.1,97,96,95,30.36,30.13,3,0,4,0.00
2013-12-19,30.6,28.2,26.1,28.2,26.4,24.8,96,93,90,30.13,29.96,4,0,9,0.00
2013-12-20,35.1,31.8,29.7,33.5,30.2,27.8,96,94,91,30.46,30.07,7,1,13,0.02
2013-12-21,37.6,33.7,31.3,33.8,31.6,29.9,96,92,86,30.49,30.30,9,1,14,0.01
2013-12-22,46.9,39.5,29.5,42.0,36.0,28.2,96,87,79,30.30,30.07,6,1,13,0.01
2013-12-23,48.0,45.1,42.8,42.3,40.0,38.3,86,82,71,30.12,29.90,10,2,14,0.00
2013-12-24,43.7,36.3,29.8,38.3,33.4,28.3,96,89,78,29.90,29.58,7,1,11,0.00
2013-12-25,40.8,36.4,33.4,39.3,35.4,32.4,97,96,94,29.58,29.34,2,0,5,0.01
2013-12-26,44.8,39.4,36.3,42.3,38.3,35.6,98,96,90,29.55,29.27,6,0,13,0.01
2013-12-27,44.1,40.5,36.5,39.2,37.1,33.8,96,88,76,29.79,29.55,10,1,13,0.01
2013-12-28,37.6,34.5,30.6,35.2,32.6,29.0,96,93,88,29.76,29.69,4,0,9,0.00
2013-12-29,42.3,37.7,32.7,37.0,34.5,31.7,97,88,77,30.24,29.75,13,1,15,0.00
2013-12-30,39.0,34.4,29.7,34.5,31.1,27.1,95,88,77,30.37,30.24,5,0,7,0.01
2013-12-31,33.3,28.6,24.3,31.7,27.1,22.5,96,94,89,30.28,30.05,1,0,5,0.01
2014-1-1,35.4,32.8,29.5,32.9,30.7,27.9,96,92,87,30.05,29.90,2,0,7,0.00
2014-1-2,36.5,33.4,28.6,33.1,31.1,27.1,96,91,86,29.90,29.79,4,0,8,0.00